Flag for Norway Weather past 2 weeks in Ålgård, Norway

Now
43 °F

Partly cloudy.


Feels Like: 39 °F
Forecast: 42 / 47 °F
Wind: 7 mph from West

Location: Stavanger / Sola

Current Time: Mar 6, 2015 at 4:14:52 AM

Latest Report: Mar 6, 2015 at 3:50 AM


Visibility: 6 mi

Pressure: 30.18 "Hg

Humidity: 93%

Dew point: 41 °F

Location of ÅlgårdLocation

Historic Weather in Ålgård — Graph

°F

Ålgård temperature yesterday

Maximum temperature yesterday: 45 °F (at 2:20 PM)
Minimum temperature yesterday: 36 °F (at 12:20 AM)
Average temperature yesterday: 42 °F

Past Weeks' High & Low Weather Summary

 TemperatureHumidityPressure
High46 °F (Feb 19, 3:50 AM)100% (Feb 19, 4:50 AM)30.33 "Hg (Feb 19, 4:50 AM)
Low34 °F (Feb 22, 12:50 AM)53% (Feb 22, 11:20 AM)28.71 "Hg (Feb 23, 6:20 AM)
Average40 °F86%29.48 "Hg
* Reported Feb 19 3:50 AM — Mar 6 2:50 AM, Ålgård, Weather by CustomWeather, © 2015

Note: Actual official high and low records may vary slightly from our data, if they occured in-between our weather recording intervals... More about our weather records

Advertising

Ålgård weather history for previous 24 hours

 ConditionsComfort  
Time TempWeatherWind HumidityBarometerVisibility
2:50 AM
Fri, Mar 6
43 °FPartly cloudy.6 mph100%30.18 "HgN/A
1:50 AM45 °FLight rain. Passing clouds.12 mph93%30.18 "Hg6 mi
12:50 AM45 °FDrizzle. Low clouds.12 mph93%30.15 "Hg5 mi
12:20 AM45 °FDrizzle. Fog.10 mph93%30.15 "Hg3 mi
11:50 PM
Thu, Mar 5
45 °FPassing clouds.12 mph93%30.15 "Hg4 mi
11:20 PM43 °FLight rain. Passing clouds.10 mph100%30.15 "HgN/A
10:50 PM43 °FPassing clouds.10 mph100%30.15 "Hg4 mi
10:20 PM43 °FDrizzle. Fog.9 mph100%30.15 "Hg3 mi
9:50 PM43 °FPartly cloudy.10 mph100%30.18 "Hg6 mi
9:20 PM43 °FLight rain. Partly cloudy.12 mph93%30.18 "Hg4 mi
8:50 PM45 °FPartly cloudy.13 mph93%30.18 "HgN/A
8:20 PM45 °FPassing clouds.15 mph93%30.18 "Hg6 mi
7:50 PM45 °FPartly cloudy.13 mph87%30.18 "Hg6 mi
7:20 PM43 °FPartly cloudy.13 mph93%30.18 "Hg6 mi
6:50 PM45 °FPassing clouds.13 mph93%30.21 "Hg6 mi
6:20 PM45 °FPassing clouds.13 mph93%30.21 "Hg6 mi
5:50 PM45 °FPartly sunny.12 mph93%30.21 "HgN/A
5:20 PM45 °FPartly sunny.10 mph93%30.21 "HgN/A
4:50 PM45 °FPartly sunny.12 mph93%30.21 "HgN/A
4:20 PM45 °FDrizzle. Low clouds.12 mph93%30.24 "HgN/A
3:50 PM45 °FDrizzle. Partly sunny.14 mph93%30.24 "Hg6 mi
3:20 PM45 °FDrizzle. Partly sunny.14 mph93%30.24 "Hg6 mi
2:50 PM45 °FDrizzle. Partly sunny.13 mph93%30.24 "HgN/A
2:20 PM45 °FLight rain. Partly sunny.13 mph93%30.27 "HgN/A
1:50 PM43 °FPartly sunny.14 mph93%30.27 "HgN/A
1:20 PM43 °FBroken clouds.15 mph93%30.27 "HgN/A
12:50 PM43 °FDrizzle. Partly sunny.14 mph93%30.27 "HgN/A
12:20 PM43 °FDrizzle. Broken clouds.13 mph87%30.27 "HgN/A
11:50 AM41 °FDrizzle. Partly sunny.12 mph93%30.30 "HgN/A
11:20 AM41 °FDrizzle. Broken clouds.12 mph93%30.30 "HgN/A
10:50 AM41 °FLight rain. Broken clouds.9 mph93%30.30 "HgN/A
10:20 AM41 °FDrizzle. Broken clouds.9 mph93%30.30 "HgN/A
9:50 AM41 °FDrizzle. Broken clouds.9 mph87%30.30 "HgN/A
9:20 AM39 °FDrizzle. Overcast.7 mph93%30.30 "HgN/A
8:50 AM39 °FDrizzle. Partly sunny.6 mph93%30.30 "HgN/A
8:20 AM41 °FDrizzle. Broken clouds.5 mph81%30.30 "HgN/A
7:50 AM41 °FDrizzle. Broken clouds.7 mph87%30.30 "HgN/A
7:20 AM41 °FPassing clouds.2 mph76%30.30 "HgN/A
6:50 AM41 °FPartly cloudy.3 mph76%30.33 "HgN/A
6:20 AM41 °FPassing clouds.8 mph87%30.33 "HgN/A
5:50 AM41 °FPassing clouds.6 mph81%30.30 "HgN/A
5:20 AM39 °FPassing clouds.7 mph81%30.30 "HgN/A
4:20 AM41 °FPassing clouds.9 mph76%30.30 "HgN/A
Weather by CustomWeather, © 2015

See weather overviewHow to use our weather pages